Terminal Aerodrome Forecast
Issued by NWS

Home | Current Version | Previous Version | Text Only | Print | Product List | Glossary On
Versions: 1 2 3 4 5 6 7 8 9 10 11 12 13 14 15 16 17 18 19 20
000
FTUS41 KPBZ 011700
TAFDUJ
TAF
KDUJ 011738Z 0118/0218 13006KT 1SM -SN BR BKN009 OVC015
     FM020000 10007KT 1/2SM SN FG OVC006
     FM021000 18009KT 2SM -SN OVC008
     FM021300 VRB05KT 4SM -RA BR OVC008
     FM021600 31012G22KT 2SM -SN BR OVC008=

USA.gov is the U.S. government's official web portal to all federal, state and local government web resources and services.